User: anonymous   Login
Location: Unspecified
(0.0000°N, 0.0000°E)
Time: 15:13:25
(UTC+00:00)
Language:

Hubble Space Telescope - Orbit

View from above orbital plane
View from above orbital plane
View from above satellite
View from above satellite

Ground track
Ground track

The orbit data is extracted from the following two-line orbital elements,

1 20580U 90037B   19107.86332133 +.00000489 +00000-0 +18871-4 0  9991
2 20580 028.4691 260.7706 0002664 175.3495 318.5478 15.09208392391544
Epoch (UTC): 17 April 2019 20:43:10
Eccentricity: 0.0002664
inclination: 28.4691°
perigee height: 537 km
apogee height: 540 km
right ascension of ascending node: 260.7706°
argument of perigee: 175.3495°
revolutions per day: 15.09208392
mean anomaly at epoch: 318.5478°
orbit number at epoch: 39154

The dashed part of the orbit path shows where the satellite is in the earth's shadow,  

DLR